Regional Weather Roundup
Issued by NWS

Home | Current Version | Previous Version | Graphics & Text | Print | Product List | Glossary Off
Versions: 1 2 3 4 5 6 7 8 9 10 11 12 13 14 15 16 17 18 19 20 21 22 23 24 25 26 27 28 29 30 31 32 33 34 35 36 37 38 39 40 41 42 43 44 45 46 47 48 49 50

000
ASUS43 KMKX 291100
RWRWI

WISCONSIN REGIONAL WEATHER ROUNDUP
NATIONAL WEATHER SERVICE MILWAUKEE/SULLIVAN WI
600 AM CDT SUN MAR 29 2015

NOTE: "FAIR" INDICATES FEW OR NO CLOUDS BELOW 12,000 FEET WITH NO
SIGNIFICANT WEATHER AND/OR OBSTRUCTIONS TO VISIBILITY.

WIZ001-002-006>008-014>016-023>028-291200-
NORTHWEST WISCONSIN

CITY           SKY/WX    TMP DP  RH WIND       PRES   REMARKS
SUPERIOR ARPT  MOCLDY    38  23  54 SW21G29   29.61F WCI  27
ASHLAND        MOCLDY    35  17  47 S18G26    29.65F WCI  24
HAYWARD        LGT RAIN  34  19  54 S22G29    29.68F WCI  22
SIREN          MIX PCPN  34  27  76 S20G29    29.67F WCI  23
CUMBERLAND     MIX PCPN  32  27  80 S15G22    29.71F WCI  22
RICE LAKE      RAIN      34  22  61 SE20      29.76F WCI  23
CHETEK         LGT RAIN  34  22  61 SE14G22   29.76F WCI  24
LADYSMITH      MOCLDY    32  17  55 S10       29.83F WCI  24
EAU CLAIRE     NOT AVBL
MENOMONIE      LGT RAIN  35  22  58 SE12G20   29.80F WCI  27
NEW RICHMOND   LGT RAIN  33  29  86 S17       29.72F WCI  22
OSCEOLA        MIX PCPN  34  30  86 S16       29.74F WCI  23
$$

WIZ003>005-009-010-017-018-291200-
NORTH CENTRAL WISCONSIN

CITY           SKY/WX    TMP DP  RH WIND       PRES   REMARKS
MANITOWISH WTR MOCLDY    30  15  54 S15G22    29.76F WCI  19
ARBOR VITAE    MOCLDY    32  17  55 S14G22    29.80F WCI  22
WOODRUFF       MOCLDY    32  17  55 S14G22    29.80F WCI  22
RHINELANDER    MOCLDY    29  14  53 S14G20    29.84F WCI  18
EAGLE RIVER    MOCLDY    30  12  47 S12G18    29.82F WCI  20
LAND O LAKES   MOCLDY    30  14  51 SW9G17    29.81F WCI  22
PHILLIPS       CLOUDY    30  15  53 S12       29.80F WCI  21
TOMAHAWK       PTCLDY    29  15  55 S5        29.87F WCI  24
MEDFORD        PTCLDY    29  17  62 S13       29.84F WCI  18
MERRILL        PTCLDY    30  15  53 SW10      29.89F WCI  21
$$

WIZ029-030-035-036-043>047-291200-
CENTRAL WISCONSIN

CITY           SKY/WX    TMP DP  RH WIND       PRES   REMARKS
WAUSAU         PTCLDY    30  15  53 S13       29.89F WCI  20
MOSINEE        CLEAR     28  16  59 S14       29.92F WCI  17
MARSHFIELD     PTCLDY    30  16  56 S14       29.87F WCI  19
STEVENS POINT  PTCLDY    28  14  54 S10G17    29.95S WCI  19
WAUPACA        MOCLDY    32  16  51 S10       29.98S WCI  24
WAUTOMA        NOT AVBL
WISC RAPIDS    PTCLDY    31  14  49 S10       29.95F WCI  22
CAMP DOUGLAS   NOT AVBL
$$

WIZ011>013-019>022-031-037>040-048>050-291200-
NORTHEAST WISCONSIN

CITY           SKY/WX    TMP DP  RH WIND       PRES   REMARKS
ANTIGO         MOCLDY    28  15  58 SW13      29.91R WCI  18
SHAWANO        MOCLDY    32  17  54 SW7       29.97R WCI  26
OCONTO         MOCLDY    30  17  57 S8        29.98F WCI  22
STURGEON BAY   MOCLDY    30  14  51 S15       30.01S WCI  19
GREEN BAY      MOCLDY    32  19  58 S18G24    30.00F WCI  20
MANITOWOC      NOT AVBL
APPLETON       MOCLDY    28  16  59 S20       30.00S WCI  15
CLINTONVILLE   MOCLDY    32  18  55 S13G20    29.98S WCI  22
OSHKOSH        PTCLDY    29  17  61 S16       30.01S WCI  17
$$

WIZ032>034-041-042-053>061-291200-
SOUTHWEST WISCONSIN

CITY           SKY/WX    TMP DP  RH WIND       PRES   REMARKS
LA CROSSE      MOCLDY    36  20  52 S17G33    29.89F WCI  26
SPARTA         MOCLDY    32  17  53 S14G20    29.92F WCI  22
VIROQUA        MOCLDY    31  20  63 S15G22    29.91F WCI  20
BOSCOBEL       MOCLDY    34  18  52 S8G17     29.96F WCI  27
PRAIRIE DU CHI MOCLDY    34  18  53 SE10G18   29.97F WCI  26
PLATTEVILLE    MOCLDY    31  21  66 S17       30.04R WCI  19
$$

WIZ056-057-062-063-064-067-068-291200-
SOUTH CENTRAL WISCONSIN

CITY           SKY/WX    TMP DP  RH WIND       PRES   REMARKS
REEDSBURG      PTCLDY    31  18  59 S12G20    29.99S WCI  22
BARABOO/DELLS  PTCLDY    31  17  55 SW15G21   29.99S WCI  20
LONE ROCK      NOT AVBL
MINERAL POINT  PTCLDY    32  19  59 S14       30.02R WCI  22
MADISON        MOCLDY    31  18  58 S12G22    30.03S WCI  22
MIDDLETON      MOCLDY    32  18  55 S13G21    30.02F WCI  22
WATERTOWN      PTCLDY    29  18  65 S10G17    30.05S WCI  19
MONROE         PTCLDY    30  21  69 S18G25    30.02F WCI  18
JANESVILLE     PTCLDY    32  18  55 S13G23    30.07F WCI  22
$$

WIZ051-052-058>065-066-070>072-291200-
SOUTHEAST WISCONSIN

CITY           SKY/WX    TMP DP  RH WIND       PRES   REMARKS
MILWAUKEE      MOCLDY    30  14  51 S10       30.08F WCI  21
WAUKESHA       CLEAR     27  14  59 S10       30.27R WCI  17
MILWAUKEE/TIMM MOCLDY    30  12  47 S10G22    30.08F WCI  21
RACINE         MOCLDY    31  13  47 S13       30.10F WCI  21
BURLINGTON     PTCLDY    28  16  58 S14G20    30.07F WCI  17
KENOSHA        PTCLDY    29  15  56 S12       30.09F WCI  19
FOND DU LAC    PTCLDY    31  17  56 S18       30.02F WCI  19
SHEBOYGAN      MOCLDY    28  16  60 S13       30.04F WCI  17
WEST BEND      PTCLDY    30  14  51 S12       30.05F WCI  21
JUNEAU         PTCLDY    29  18  63 S13G20    30.04S WCI  18
$$

LSZ147-162-291200-
LAKE SUPERIOR

STATION/POSITION TIME  TEMP    WIND        PRES    WAVE
                       AIR SEA DIR/SP/G            HT/PER
                 (UTC) (F)     (DEG/KT/KT) (MB)    (FT/S)
DEVILS ISLAND    1000   36     190/ 14/ 21 1006.0F
PORT WING        1000   37     190/ 13     1004.4F
SAXON HARBOR     1000   37     200/  9/ 21 1007.1F
$$

LMZ867-665-643>646-291200-
LAKE MICHIGAN

STATION/POSITION TIME  TEMP    WIND        PRES    WAVE
                       AIR SEA DIR/SP/G            HT/PER
                 (UTC) (F)     (DEG/KT/KT) (MB)    (FT/S)
NORTHPORT PIER   1020   32     170/  6/ 13 1015.6F
SISTER BAY       1032   32     190/ 18/ 26   N/A
SHEBOYGAN LAKESH 1000   32     190/ 19/ 24 1019.2F
PORT WASHINGTON  1020   31     200/  7/ 19 1019.0F
MILWAUKEE LAKESH 1000   31     200/ 15/ 20   N/A
KENOSHA   LAKESH 1000   31     190/ 14/ 17 1020.3F
$$

TC  - TEMPERATURE IN CELSIUS
VSB - VISIBILITY IN STATUTE MILES
WCI - WIND CHILL INDEX
HX  - HEAT INDEX



USA.gov is the U.S. government's official web portal to all federal, state and local government web resources and services.